Time,TemperatureF,DewpointF,PressureIn,WindDirection,WindDirectionDegrees,WindSpeedMPH,WindSpeedGustMPH,Humidity,HourlyPrecipIn,Conditions,Clouds,dailyrainin,SolarRadiationWatts/m^2,SoftwareType,DateUTC
2013-05-20 00:02:00,67.0,61.3,29.70,West,275,5.2,11.5,82,0.01,CLR,,1.25,0.0,WeatherDisplay:10.37,2013-05-20 05:02:00,
2013-05-20 00:07:00,66.8,61.5,29.69,West,261,2.4,5.8,83,0.01,CLR,,1.25,0.0,WeatherDisplay:10.37,2013-05-20 05:07:00,
2013-05-20 00:12:00,66.7,61.4,29.69,West,261,0.8,2.3,83,0.01,CLR,,1.25,0.0,WeatherDisplay:10.37,2013-05-20 05:12:00,
2013-05-20 00:17:00,66.6,61.3,29.69,West,261,0.0,0.0,83,0.01,CLR,,1.25,0.0,WeatherDisplay:10.37,2013-05-20 05:17:00,
2013-05-20 00:22:00,66.5,61.2,29.69,West,261,0.2,2.3,83,0.01,CLR,,1.25,0.0,WeatherDisplay:10.37,2013-05-20 05:22:00,
2013-05-20 00:27:00,66.4,61.4,29.69,West,261,0.2,1.2,84,0.01,CLR,,1.25,0.0,WeatherDisplay:10.37,2013-05-20 05:27:00,
2013-05-20 00:32:00,66.3,61.3,29.69,West,261,0.0,0.0,84,0.00,CLR,,1.25,0.0,WeatherDisplay:10.37,2013-05-20 05:32:00,
2013-05-20 00:37:00,66.1,61.1,29.69,West,261,1.0,1.2,84,0.00,CLR,,1.25,0.0,WeatherDisplay:10.37,2013-05-20 05:37:00,
2013-05-20 00:42:00,65.9,61.3,29.69,West,261,0.7,3.5,85,0.00,CLR,,1.25,0.0,WeatherDisplay:10.37,2013-05-20 05:42:00,
2013-05-20 00:47:00,65.8,61.2,29.67,West,261,1.3,2.3,85,0.00,CLR,,1.25,0.0,WeatherDisplay:10.37,2013-05-20 05:47:00,
2013-05-20 00:52:00,65.6,61.3,29.67,West,261,0.2,1.2,86,0.00,CLR,,1.25,0.0,WeatherDisplay:10.37,2013-05-20 05:52:00,
2013-05-20 00:57:00,65.5,61.2,29.69,West,261,1.5,2.3,86,0.00,CLR,,1.25,0.0,WeatherDisplay:10.37,2013-05-20 05:57:00,
2013-05-20 01:02:00,65.4,61.1,29.70,West,261,1.3,2.3,86,0.00,CLR,,1.25,0.0,WeatherDisplay:10.37,2013-05-20 06:02:00,
2013-05-20 01:07:00,65.3,61.3,29.68,West,261,0.0,0.0,87,0.00,CLR,,1.25,0.0,WeatherDisplay:10.37,2013-05-20 06:07:00,
2013-05-20 01:12:00,65.2,61.2,29.68,West,261,0.0,0.0,87,0.00,CLR,,1.25,0.0,WeatherDisplay:10.37,2013-05-20 06:12:00,
2013-05-20 01:17:00,65.1,61.1,29.68,West,261,0.6,2.3,87,0.00,CLR,,1.25,0.0,WeatherDisplay:10.37,2013-05-20 06:17:00,
2013-05-20 01:22:00,65.0,61.0,29.69,WSW,245,0.7,2.3,87,0.00,CLR,,1.25,0.0,WeatherDisplay:10.37,2013-05-20 06:22:00,
2013-05-20 01:27:00,64.9,60.9,29.71,SW,235,3.3,5.0,87,0.00,CLR,,1.25,0.0,WeatherDisplay:10.37,2013-05-20 06:27:00,
2013-05-20 01:32:00,64.8,60.8,29.71,SW,235,2.2,4.0,87,0.00,CLR,,1.25,0.0,WeatherDisplay:10.37,2013-05-20 06:32:00,
2013-05-20 01:37:00,64.9,60.9,29.71,WSW,246,1.9,3.5,87,0.00,CLR,,1.25,0.0,WeatherDisplay:10.37,2013-05-20 06:37:00,
2013-05-20 01:42:00,65.0,61.0,29.71,SW,216,3.5,7.0,87,0.00,CLR,,1.25,0.0,WeatherDisplay:10.37,2013-05-20 06:42:00,
2013-05-20 01:47:00,65.3,61.0,29.72,West,273,4.7,12.7,86,0.00,CLR,,1.25,0.0,WeatherDisplay:10.37,2013-05-20 06:47:00,
2013-05-20 01:52:00,65.5,60.9,29.72,West,273,6.1,10.4,85,0.00,CLR,,1.25,0.0,WeatherDisplay:10.37,2013-05-20 06:52:00,
2013-05-20 01:57:00,65.9,60.6,29.71,WSW,246,7.3,13.0,83,0.00,CLR,,1.25,0.0,WeatherDisplay:10.37,2013-05-20 06:57:00,
2013-05-20 02:02:00,66.2,60.5,29.70,West,281,9.1,15.0,82,0.00,CLR,,1.25,0.0,WeatherDisplay:10.37,2013-05-20 07:02:00,
2013-05-20 02:07:00,66.3,60.3,29.70,SW,222,6.0,12.0,81,0.00,CLR,,1.25,0.0,WeatherDisplay:10.37,2013-05-20 07:07:00,
2013-05-20 02:12:00,66.4,60.4,29.71,SW,223,9.1,17.0,81,0.00,CLR,,1.25,0.0,WeatherDisplay:10.37,2013-05-20 07:12:00,
2013-05-20 02:17:00,66.5,60.1,29.70,WSW,242,6.9,11.0,80,0.00,CLR,,1.25,0.0,WeatherDisplay:10.37,2013-05-20 07:17:00,
2013-05-20 02:22:00,66.4,60.0,29.69,SW,236,4.2,12.0,80,0.00,CLR,,1.25,0.0,WeatherDisplay:10.37,2013-05-20 07:22:00,
2013-05-20 02:27:00,66.3,59.9,29.68,WSW,240,6.5,13.8,80,0.00,CLR,,1.25,0.0,WeatherDisplay:10.37,2013-05-20 07:27:00,
2013-05-20 02:32:00,66.2,59.8,29.68,WSW,253,4.8,10.4,80,0.00,CLR,,1.25,0.0,WeatherDisplay:10.37,2013-05-20 07:32:00,
2013-05-20 02:37:00,66.1,59.7,29.68,West,264,7.0,11.5,80,0.00,CLR,,1.25,0.0,WeatherDisplay:10.37,2013-05-20 07:37:00,
2013-05-20 02:42:00,65.9,59.6,29.69,West,272,4.2,11.0,80,0.00,CLR,,1.25,0.0,WeatherDisplay:10.37,2013-05-20 07:42:00,
2013-05-20 02:47:00,65.8,59.5,29.68,SW,233,4.9,19.0,80,0.00,CLR,,1.25,0.0,WeatherDisplay:10.37,2013-05-20 07:47:00,
2013-05-20 02:52:00,65.7,59.4,29.65,SW,232,0.1,1.2,80,0.00,CLR,,1.25,0.0,WeatherDisplay:10.37,2013-05-20 07:52:00,
2013-05-20 02:57:00,65.7,59.4,29.65,SW,232,0.0,0.0,80,0.00,CLR,,1.25,0.0,WeatherDisplay:10.37,2013-05-20 07:57:00,
2013-05-20 03:02:00,65.6,59.3,29.65,SW,232,1.6,3.5,80,0.00,CLR,,1.25,0.0,WeatherDisplay:10.37,2013-05-20 08:02:00,
2013-05-20 03:07:00,65.5,59.5,29.64,SW,225,0.7,19.0,81,0.00,CLR,,1.25,0.0,WeatherDisplay:10.37,2013-05-20 08:07:00,
2013-05-20 03:12:00,65.3,59.3,29.66,South,188,2.2,19.0,81,0.00,CLR,,1.25,0.0,WeatherDisplay:10.37,2013-05-20 08:12:00,
2013-05-20 03:17:00,65.1,59.1,29.65,South,188,0.6,2.0,81,0.00,CLR,,1.25,0.0,WeatherDisplay:10.37,2013-05-20 08:17:00,
2013-05-20 03:22:00,65.0,59.4,29.65,South,175,2.8,6.0,82,0.00,CLR,,1.25,0.0,WeatherDisplay:10.37,2013-05-20 08:22:00,
2013-05-20 03:27:00,64.9,59.3,29.66,South,175,0.3,2.0,82,0.00,CLR,,1.25,0.0,WeatherDisplay:10.37,2013-05-20 08:27:00,
2013-05-20 03:32:00,64.7,59.4,29.67,SSE,167,2.9,4.0,83,0.00,CLR,,1.25,0.0,WeatherDisplay:10.37,2013-05-20 08:32:00,
2013-05-20 03:37:00,64.5,59.2,29.68,SSE,157,8.4,13.8,83,0.00,CLR,,1.25,0.0,WeatherDisplay:10.37,2013-05-20 08:37:00,
2013-05-20 03:42:00,64.5,59.2,29.69,South,180,10.0,15.0,83,0.00,CLR,,1.25,0.0,WeatherDisplay:10.37,2013-05-20 08:42:00,
2013-05-20 03:47:00,64.4,59.5,29.69,SSE,165,6.2,12.7,84,0.00,CLR,,1.25,0.0,WeatherDisplay:10.37,2013-05-20 08:47:00,
2013-05-20 03:52:00,64.3,59.4,29.69,SE,144,5.6,9.2,84,0.00,CLR,,1.25,0.0,WeatherDisplay:10.37,2013-05-20 08:52:00,
2013-05-20 03:57:00,64.3,59.4,29.69,South,184,6.8,13.8,84,0.00,CLR,,1.25,0.0,WeatherDisplay:10.37,2013-05-20 08:57:00,
2013-05-20 04:02:00,64.2,59.3,29.70,South,178,6.0,11.5,84,0.00,CLR,,1.25,0.0,WeatherDisplay:10.37,2013-05-20 09:02:00,
2013-05-20 04:07:00,64.2,59.3,29.69,WSW,251,6.9,16.1,84,0.00,CLR,,1.25,0.0,WeatherDisplay:10.37,2013-05-20 09:07:00,
2013-05-20 04:12:00,64.0,59.1,29.68,South,180,6.4,11.5,84,0.01,RA,,1.27,0.0,WeatherDisplay:10.37,2013-05-20 09:12:00,
2013-05-20 04:17:00,63.6,59.0,29.68,South,185,7.2,17.0,85,0.02,RA,,1.28,0.0,WeatherDisplay:10.37,2013-05-20 09:17:00,
2013-05-20 04:22:00,63.4,58.8,29.68,South,171,8.3,17.3,85,0.02,RA,,1.28,0.0,WeatherDisplay:10.37,2013-05-20 09:22:00,
2013-05-20 04:27:00,63.2,58.9,29.69,South,176,10.4,18.4,86,0.04,RA,,1.29,0.0,WeatherDisplay:10.37,2013-05-20 09:27:00,
2013-05-20 04:32:00,63.0,58.7,29.70,SSE,161,10.9,22.0,86,0.05,RA,,1.30,0.0,WeatherDisplay:10.37,2013-05-20 09:32:00,
2013-05-20 04:37:00,62.7,58.8,29.69,SSE,147,12.4,21.9,87,0.06,RA,,1.32,0.0,WeatherDisplay:10.37,2013-05-20 09:37:00,
2013-05-20 04:42:00,62.4,58.5,29.67,SSE,148,12.0,19.6,87,0.09,RA,,1.34,0.0,WeatherDisplay:10.37,2013-05-20 09:42:00,
2013-05-20 04:47:00,62.1,58.5,29.66,SE,139,12.8,20.0,88,0.10,RA,,1.35,0.0,WeatherDisplay:10.37,2013-05-20 09:47:00,
2013-05-20 04:52:00,61.9,58.3,29.65,SSE,150,10.2,17.3,88,0.11,RA,,1.37,0.0,WeatherDisplay:10.37,2013-05-20 09:52:00,
2013-05-20 04:57:00,61.8,58.5,29.65,SSE,152,12.2,17.3,89,0.11,RA,,1.37,0.0,WeatherDisplay:10.37,2013-05-20 09:57:00,
2013-05-20 05:02:00,61.7,58.4,29.66,SSE,157,10.9,18.4,89,0.11,,,1.37,0.0,WeatherDisplay:10.37,2013-05-20 10:02:00,
2013-05-20 05:07:00,61.6,58.6,29.66,SSE,165,10.3,16.1,90,0.11,CLR,,1.37,0.0,WeatherDisplay:10.37,2013-05-20 10:07:00,
2013-05-20 05:12:00,61.6,58.6,29.66,SSE,160,10.5,14.0,90,0.11,RA,,1.38,0.0,WeatherDisplay:10.37,2013-05-20 10:12:00,
2013-05-20 05:17:00,61.6,58.6,29.66,SSE,149,8.2,13.8,90,0.10,RA,,1.38,0.0,WeatherDisplay:10.37,2013-05-20 10:17:00,
2013-05-20 05:22:00,61.5,58.5,29.66,SE,137,9.8,16.1,90,0.10,,,1.38,0.0,WeatherDisplay:10.37,2013-05-20 10:22:00,
2013-05-20 05:27:00,61.5,58.5,29.66,SSE,156,8.6,13.8,90,0.09,CLR,,1.38,0.0,WeatherDisplay:10.37,2013-05-20 10:27:00,
2013-05-20 05:32:00,61.5,58.5,29.66,SSE,147,7.9,13.8,90,0.07,OVC,,1.38,0.0,WeatherDisplay:10.37,2013-05-20 10:32:00,
2013-05-20 05:37:00,61.5,58.5,29.67,South,176,8.3,14.0,90,0.06,OVC,,1.38,0.0,WeatherDisplay:10.37,2013-05-20 10:37:00,
2013-05-20 05:42:00,61.5,58.5,29.67,South,173,9.2,13.0,90,0.04,OVC,,1.38,0.0,WeatherDisplay:10.37,2013-05-20 10:42:00,
2013-05-20 05:47:00,61.5,58.5,29.67,SSE,155,9.1,15.0,90,0.04,OVC,,1.38,0.0,WeatherDisplay:10.37,2013-05-20 10:47:00,
2013-05-20 05:52:00,61.5,58.5,29.67,SSE,151,7.2,11.5,90,0.01,OVC,,1.38,0.0,WeatherDisplay:10.37,2013-05-20 10:52:00,
2013-05-20 05:58:00,61.5,58.5,29.67,SSE,153,6.9,10.4,90,0.01,OVC,,1.38,6.2,WeatherDisplay:10.37,2013-05-20 10:58:00,
2013-05-20 06:03:00,61.4,58.4,29.68,SE,138,7.7,13.8,90,0.01,OVC,,1.38,8.7,WeatherDisplay:10.37,2013-05-20 11:03:00,
2013-05-20 06:08:00,61.3,58.3,29.68,SSE,155,10.0,13.0,90,0.01,OVC,,1.38,11.2,WeatherDisplay:10.37,2013-05-20 11:08:00,
2013-05-20 06:13:00,61.3,58.3,29.68,SE,146,8.3,11.5,90,0.00,OVC,,1.38,17.4,WeatherDisplay:10.37,2013-05-20 11:13:00,
2013-05-20 06:18:00,61.3,58.3,29.68,South,171,8.5,16.1,90,0.00,FEW,,1.38,40.9,WeatherDisplay:10.37,2013-05-20 11:18:00,
2013-05-20 06:23:00,61.4,58.4,29.68,SSE,156,5.8,10.4,90,0.00,CLR,,1.38,52.1,WeatherDisplay:10.37,2013-05-20 11:23:00,
2013-05-20 06:28:00,61.5,58.5,29.69,SSE,160,9.4,17.0,90,0.00,CLR,,1.38,86.8,WeatherDisplay:10.37,2013-05-20 11:28:00,
2013-05-20 06:33:00,61.8,58.8,29.69,SE,126,10.8,15.0,90,0.00,CLR,,1.38,132.7,WeatherDisplay:10.37,2013-05-20 11:33:00,
2013-05-20 06:38:00,62.1,59.1,29.70,SE,131,8.8,17.3,90,0.00,CLR,,1.38,117.8,WeatherDisplay:10.37,2013-05-20 11:38:00,
2013-05-20 06:43:00,62.3,59.0,29.70,SSE,156,7.2,16.1,89,0.00,CLR,,1.38,135.2,WeatherDisplay:10.37,2013-05-20 11:43:00,
2013-05-20 06:48:00,62.5,59.2,29.70,SSE,156,7.4,15.0,89,0.00,CLR,,1.38,117.8,WeatherDisplay:10.37,2013-05-20 11:48:00,
2013-05-20 06:53:00,62.6,59.3,29.69,South,173,8.2,12.0,89,0.00,CLR,,1.38,218.2,WeatherDisplay:10.37,2013-05-20 11:53:00,
2013-05-20 06:58:00,62.7,59.4,29.68,SSE,156,7.5,11.5,89,0.00,CLR,,1.38,130.2,WeatherDisplay:10.37,2013-05-20 11:58:00,
2013-05-20 07:03:00,62.8,59.5,29.68,SSE,153,7.3,13.0,89,0.00,RA,,0.00,60.8,WeatherDisplay:10.37,2013-05-20 12:03:00,
2013-05-20 07:08:00,62.8,59.2,29.69,SSE,149,8.9,16.1,88,0.00,RA,,0.00,48.4,WeatherDisplay:10.37,2013-05-20 12:08:00,
2013-05-20 07:13:00,62.9,59.3,29.69,SSE,153,9.4,17.3,88,0.00,OVC,,0.00,40.9,WeatherDisplay:10.37,2013-05-20 12:13:00,
2013-05-20 07:18:00,63.0,59.4,29.69,SSE,159,9.7,19.6,88,0.00,OVC,,0.00,39.7,WeatherDisplay:10.37,2013-05-20 12:18:00,
2013-05-20 07:23:00,63.1,59.2,29.69,South,169,10.6,16.1,87,0.00,OVC,,0.00,45.9,WeatherDisplay:10.37,2013-05-20 12:23:00,
2013-05-20 07:28:00,63.2,59.3,29.68,SSE,167,10.7,17.3,87,0.00,OVC,,0.00,85.6,WeatherDisplay:10.37,2013-05-20 12:28:00,
2013-05-20 07:33:00,63.2,59.3,29.69,SSE,164,4.5,10.4,87,0.00,OVC,,0.00,95.5,WeatherDisplay:10.37,2013-05-20 12:33:00,
2013-05-20 07:38:00,63.2,59.3,29.69,South,179,5.7,11.5,87,0.00,BKN,,0.00,94.2,WeatherDisplay:10.37,2013-05-20 12:38:00,
2013-05-20 07:43:00,63.2,59.3,29.68,SSE,164,8.0,16.1,87,0.00,OVC,,0.00,83.1,WeatherDisplay:10.37,2013-05-20 12:43:00,
2013-05-20 07:48:00,63.3,59.4,29.71,SSW,211,9.8,15.0,87,0.00,OVC,,0.00,104.2,WeatherDisplay:10.37,2013-05-20 12:48:00,
2013-05-20 07:53:00,63.4,59.5,29.72,SSW,213,8.8,11.5,87,0.00,BKN,,0.00,126.5,WeatherDisplay:10.37,2013-05-20 12:53:00,
2013-05-20 07:58:00,63.6,59.7,29.71,South,188,6.8,19.6,87,0.00,BKN,,0.00,137.6,WeatherDisplay:10.37,2013-05-20 12:58:00,
2013-05-20 08:03:00,63.7,59.8,29.71,SSW,196,5.4,10.0,87,0.00,BKN,,0.00,148.8,WeatherDisplay:10.37,2013-05-20 13:03:00,
2013-05-20 08:08:00,64.0,60.1,29.70,SSE,163,8.3,12.0,87,0.00,SCT,,0.00,577.8,WeatherDisplay:10.37,2013-05-20 13:08:00,
2013-05-20 08:13:00,64.6,60.6,29.69,SW,221,9.1,17.0,87,0.00,CLR,,0.00,678.3,WeatherDisplay:10.37,2013-05-20 13:13:00,
2013-05-20 08:18:00,65.3,61.3,29.68,SW,215,4.2,10.4,87,0.00,CLR,,0.00,658.4,WeatherDisplay:10.37,2013-05-20 13:18:00,
2013-05-20 08:23:00,65.4,60.8,29.67,SSW,209,9.3,14.0,85,0.00,CLR,,0.00,155.0,WeatherDisplay:10.37,2013-05-20 13:23:00,
2013-05-20 08:28:00,65.4,60.4,29.69,SSW,194,10.1,16.1,84,0.00,SCT,,0.00,261.6,WeatherDisplay:10.37,2013-05-20 13:28:00,
2013-05-20 08:33:00,65.4,60.4,29.69,SSE,167,8.0,18.0,84,0.00,SCT,,0.00,368.3,WeatherDisplay:10.37,2013-05-20 13:33:00,
2013-05-20 08:38:00,65.6,60.6,29.69,SW,229,11.1,22.0,84,0.00,CLR,,0.00,318.7,WeatherDisplay:10.37,2013-05-20 13:38:00,
2013-05-20 08:43:00,66.0,61.0,29.69,SSW,196,7.9,12.0,84,0.00,CLR,,0.00,652.2,WeatherDisplay:10.37,2013-05-20 13:43:00,
2013-05-20 08:48:00,66.5,61.5,29.68,SSE,165,8.2,15.0,84,0.00,CLR,,0.00,664.6,WeatherDisplay:10.37,2013-05-20 13:48:00,
2013-05-20 08:53:00,66.8,61.5,29.68,SSW,196,15.4,21.9,83,0.00,CLR,,0.00,739.0,WeatherDisplay:10.37,2013-05-20 13:53:00,
2013-05-20 08:58:00,67.3,62.0,29.68,SSW,192,7.6,18.4,83,0.00,CLR,,0.00,446.4,WeatherDisplay:10.37,2013-05-20 13:58:00,
2013-05-20 09:03:00,67.5,61.5,29.69,SSW,193,7.3,13.8,81,0.00,CLR,,0.00,307.5,WeatherDisplay:10.37,2013-05-20 14:03:00,
2013-05-20 09:08:00,67.5,61.5,29.70,SW,235,9.0,12.7,81,0.00,FEW,,0.00,319.9,WeatherDisplay:10.37,2013-05-20 14:08:00,
2013-05-20 09:13:00,67.5,61.5,29.71,WSW,238,11.3,15.0,81,0.00,SCT,,0.00,293.9,WeatherDisplay:10.37,2013-05-20 14:13:00,
2013-05-20 09:18:00,67.8,62.1,29.71,SSW,207,6.1,13.0,82,0.00,CLR,,0.00,814.7,WeatherDisplay:10.37,2013-05-20 14:18:00,
2013-05-20 09:23:00,68.6,62.9,29.71,WSW,250,5.6,15.0,82,0.00,CLR,,0.00,923.8,WeatherDisplay:10.37,2013-05-20 14:23:00,
2013-05-20 09:28:00,69.5,63.1,29.71,SW,220,10.8,19.6,80,0.00,CLR,,0.00,920.1,WeatherDisplay:10.37,2013-05-20 14:28:00,
2013-05-20 09:33:00,69.8,63.0,29.71,WSW,250,4.6,8.1,79,0.00,CLR,,0.00,724.2,WeatherDisplay:10.37,2013-05-20 14:33:00,
2013-05-20 09:38:00,70.1,62.9,29.71,SW,227,8.3,14.0,78,0.00,CLR,,0.00,538.2,WeatherDisplay:10.37,2013-05-20 14:38:00,
2013-05-20 09:43:00,70.3,63.5,29.71,South,183,3.3,7.0,79,0.00,CLR,,0.00,474.9,WeatherDisplay:10.37,2013-05-20 14:43:00,
2013-05-20 09:48:00,70.5,63.3,29.71,South,187,9.7,13.0,78,0.00,CLR,,0.00,569.2,WeatherDisplay:10.37,2013-05-20 14:48:00,
2013-05-20 09:53:00,70.4,63.2,29.71,South,191,4.5,10.4,78,0.00,FEW,,0.00,479.9,WeatherDisplay:10.37,2013-05-20 14:53:00,
2013-05-20 09:58:00,70.5,62.9,29.71,SW,215,9.0,19.6,77,0.00,FEW,,0.00,463.8,WeatherDisplay:10.37,2013-05-20 14:58:00,
2013-05-20 10:03:00,70.5,62.6,29.70,SW,217,7.1,15.0,76,0.00,FEW,,0.00,551.8,WeatherDisplay:10.37,2013-05-20 15:03:00,
2013-05-20 10:08:00,71.0,63.1,29.69,SSE,163,3.5,9.2,76,0.00,FEW,,0.00,1165.6,WeatherDisplay:10.37,2013-05-20 15:08:00,
2013-05-20 10:13:00,71.6,63.6,29.70,South,173,5.5,10.4,76,0.00,CLR,,0.00,1055.2,WeatherDisplay:10.37,2013-05-20 15:13:00,
2013-05-20 10:18:00,72.4,63.6,29.70,SSW,212,10.4,19.6,74,0.00,CLR,,0.00,1116.0,WeatherDisplay:10.37,2013-05-20 15:18:00,
2013-05-20 10:23:00,72.9,63.7,29.71,SSE,163,9.3,14.0,73,0.00,CLR,,0.00,1174.3,WeatherDisplay:10.37,2013-05-20 15:23:00,
2013-05-20 10:28:00,73.4,63.4,29.71,SW,233,12.3,20.7,71,0.00,CLR,,0.00,802.3,WeatherDisplay:10.37,2013-05-20 15:28:00,
2013-05-20 10:33:00,73.3,62.9,29.71,SW,215,9.1,14.0,70,0.00,CLR,,0.00,828.3,WeatherDisplay:10.37,2013-05-20 15:33:00,
2013-05-20 10:38:00,73.3,62.5,29.71,SW,221,12.2,16.0,69,0.00,CLR,,0.00,543.1,WeatherDisplay:10.37,2013-05-20 15:38:00,
2013-05-20 10:43:00,73.4,63.0,29.71,South,175,6.9,15.0,70,0.00,CLR,,0.00,468.7,WeatherDisplay:10.37,2013-05-20 15:43:00,
2013-05-20 10:48:00,73.1,62.3,29.72,SSW,209,10.5,17.3,69,0.00,FEW,,0.00,517.1,WeatherDisplay:10.37,2013-05-20 15:48:00,
2013-05-20 10:53:00,73.0,62.2,29.71,SW,227,9.4,17.3,69,0.00,SCT,,0.00,460.0,WeatherDisplay:10.37,2013-05-20 15:53:00,
2013-05-20 10:58:00,72.6,61.8,29.71,SW,229,9.2,15.0,69,0.00,SCT,,0.00,534.4,WeatherDisplay:10.37,2013-05-20 15:58:00,
2013-05-20 11:03:00,72.6,62.3,29.72,SSW,200,9.7,16.0,70,0.00,FEW,,0.00,549.3,WeatherDisplay:10.37,2013-05-20 16:03:00,
2013-05-20 11:08:00,72.7,62.8,29.72,SW,230,3.3,9.2,71,0.00,FEW,,0.00,649.8,WeatherDisplay:10.37,2013-05-20 16:08:00,
2013-05-20 11:13:00,73.3,63.3,29.72,SW,221,7.3,16.0,71,0.00,CLR,,0.00,978.4,WeatherDisplay:10.37,2013-05-20 16:13:00,
2013-05-20 11:18:00,73.6,63.6,29.72,SSW,211,7.6,12.0,71,0.00,CLR,,0.00,505.9,WeatherDisplay:10.37,2013-05-20 16:18:00,
2013-05-20 11:23:00,73.8,63.4,29.72,SSW,207,6.0,15.0,70,0.00,CLR,,0.00,793.6,WeatherDisplay:10.37,2013-05-20 16:23:00,
2013-05-20 11:28:00,74.1,63.7,29.72,South,169,5.5,9.2,70,0.00,CLR,,0.00,1081.3,WeatherDisplay:10.37,2013-05-20 16:28:00,
2013-05-20 11:33:00,75.0,64.5,29.72,WSW,243,5.2,15.0,70,0.00,CLR,,0.00,1144.5,WeatherDisplay:10.37,2013-05-20 16:33:00,
2013-05-20 11:38:00,75.6,64.3,29.71,SW,223,9.2,17.3,68,0.00,CLR,,0.00,1142.0,WeatherDisplay:10.37,2013-05-20 16:38:00,
2013-05-20 11:43:00,75.6,63.9,29.72,SW,232,6.4,12.7,67,0.00,CLR,,0.00,1148.2,WeatherDisplay:10.37,2013-05-20 16:43:00,
2013-05-20 11:48:00,76.1,64.3,29.72,South,186,8.0,13.8,67,0.00,CLR,,0.00,1150.7,WeatherDisplay:10.37,2013-05-20 16:48:00,
2013-05-20 11:53:00,76.9,64.2,29.72,SSW,209,8.0,12.7,65,0.00,CLR,,0.00,1156.9,WeatherDisplay:10.37,2013-05-20 16:53:00,
2013-05-20 11:58:00,76.8,64.1,29.72,SW,229,8.8,13.8,65,0.00,CLR,,0.00,1165.6,WeatherDisplay:10.37,2013-05-20 16:58:00,
2013-05-20 12:03:00,77.2,64.1,29.72,South,169,7.4,13.0,64,0.00,CLR,,0.00,1168.1,WeatherDisplay:10.37,2013-05-20 17:03:00,
2013-05-20 12:08:00,77.4,63.8,29.73,SSE,159,8.7,15.0,63,0.00,CLR,,0.00,1173.0,WeatherDisplay:10.37,2013-05-20 17:08:00,
2013-05-20 12:13:00,77.4,63.4,29.73,SW,223,12.9,20.0,62,0.00,CLR,,0.00,1174.3,WeatherDisplay:10.37,2013-05-20 17:13:00,
2013-05-20 12:18:00,77.4,63.8,29.73,SSW,200,13.7,19.6,63,0.00,CLR,,0.00,1181.7,WeatherDisplay:10.37,2013-05-20 17:18:00,
2013-05-20 12:23:00,77.4,64.7,29.73,SW,219,8.3,16.1,65,0.00,CLR,,0.00,1183.0,WeatherDisplay:10.37,2013-05-20 17:23:00,
2013-05-20 12:28:00,77.2,63.6,29.74,South,191,14.7,24.2,63,0.00,CLR,,0.00,1183.0,WeatherDisplay:10.37,2013-05-20 17:28:00,
2013-05-20 12:33:00,77.1,63.5,29.74,SW,217,12.0,20.0,63,0.00,CLR,,0.00,1187.9,WeatherDisplay:10.37,2013-05-20 17:33:00,
2013-05-20 12:38:00,77.1,64.0,29.74,SW,229,11.5,17.3,64,0.00,CLR,,0.00,1199.1,WeatherDisplay:10.37,2013-05-20 17:38:00,
2013-05-20 12:43:00,77.4,63.8,29.74,SSW,202,8.3,16.1,63,0.00,CLR,,0.00,1214.0,WeatherDisplay:10.37,2013-05-20 17:43:00,
2013-05-20 12:48:00,77.8,63.7,29.74,WSW,240,13.0,26.5,62,0.00,CLR,,0.00,1253.6,WeatherDisplay:10.37,2013-05-20 17:48:00,
2013-05-20 12:53:00,77.8,62.8,29.74,SW,222,12.4,24.2,60,0.00,CLR,,0.00,1044.1,WeatherDisplay:10.37,2013-05-20 17:53:00,
2013-05-20 12:58:00,77.9,62.9,29.75,West,261,15.2,20.7,60,0.00,CLR,,0.00,1021.8,WeatherDisplay:10.37,2013-05-20 17:58:00,
2013-05-20 13:03:00,78.2,63.6,29.75,SW,219,14.0,19.6,61,0.00,CLR,,0.00,636.1,WeatherDisplay:10.37,2013-05-20 18:03:00,
2013-05-20 13:08:00,78.1,63.6,29.75,SW,229,13.5,24.2,61,0.00,CLR,,0.00,931.2,WeatherDisplay:10.37,2013-05-20 18:08:00,
2013-05-20 13:13:00,78.1,63.6,29.75,WSW,238,13.7,25.3,61,0.00,FEW,,0.00,698.1,WeatherDisplay:10.37,2013-05-20 18:13:00,
2013-05-20 13:18:00,77.7,62.7,29.75,SW,214,15.2,25.3,60,0.00,FEW,,0.00,499.7,WeatherDisplay:10.37,2013-05-20 18:18:00,
2013-05-20 13:23:00,77.1,62.6,29.75,SW,231,18.3,26.5,61,0.00,SCT,,0.00,408.0,WeatherDisplay:10.37,2013-05-20 18:23:00,
2013-05-20 13:28:00,76.5,63.0,29.75,SSW,205,11.3,17.3,63,0.00,BKN,,0.00,302.6,WeatherDisplay:10.37,2013-05-20 18:28:00,
2013-05-20 13:33:00,76.1,63.5,29.75,SW,223,8.4,13.8,65,0.00,OVC,,0.00,204.6,WeatherDisplay:10.37,2013-05-20 18:33:00,
2013-05-20 13:38:00,75.8,63.2,29.75,SW,219,8.1,13.8,65,0.00,OVC,,0.00,150.0,WeatherDisplay:10.37,2013-05-20 18:38:00,
2013-05-20 13:43:00,75.3,62.3,29.74,SW,221,15.7,23.0,64,0.00,OVC,,0.00,143.8,WeatherDisplay:10.37,2013-05-20 18:43:00,
2013-05-20 13:48:00,74.9,61.5,29.73,SSW,213,12.1,18.0,63,0.00,OVC,,0.00,373.2,WeatherDisplay:10.37,2013-05-20 18:48:00,
2013-05-20 13:53:00,75.1,62.1,29.71,SW,226,7.9,16.1,64,0.00,OVC,,0.00,771.3,WeatherDisplay:10.37,2013-05-20 18:53:00,
2013-05-20 13:58:00,75.6,62.1,29.69,SSE,161,10.2,19.6,63,0.00,SCT,,0.00,589.0,WeatherDisplay:10.37,2013-05-20 18:58:00,
2013-05-20 14:03:00,76.3,63.2,29.68,SSE,160,8.0,14.0,64,0.00,FEW,,0.00,601.4,WeatherDisplay:10.37,2013-05-20 19:03:00,
2013-05-20 14:08:00,76.8,63.2,29.69,South,173,7.2,12.7,63,0.00,FEW,,0.00,684.5,WeatherDisplay:10.37,2013-05-20 19:08:00,
2013-05-20 14:13:00,77.1,62.6,29.69,SSW,207,9.6,12.7,61,0.00,FEW,,0.00,575.4,WeatherDisplay:10.37,2013-05-20 19:13:00,
2013-05-20 14:18:00,77.1,62.6,29.68,South,180,6.3,10.4,61,0.00,SCT,,0.00,503.4,WeatherDisplay:10.37,2013-05-20 19:18:00,
2013-05-20 14:23:00,77.3,62.3,29.71,SSW,211,8.7,15.0,60,0.00,FEW,,0.00,1107.3,WeatherDisplay:10.37,2013-05-20 19:23:00,
2013-05-20 14:28:00,77.8,62.8,29.71,SW,214,7.7,13.8,60,0.00,CLR,,0.00,1093.7,WeatherDisplay:10.37,2013-05-20 19:28:00,
2013-05-20 14:33:00,78.3,63.3,29.72,SW,228,8.7,15.0,60,0.00,CLR,,0.00,615.0,WeatherDisplay:10.37,2013-05-20 19:33:00,
2013-05-20 14:38:00,78.9,64.3,29.71,SSW,207,4.7,10.4,61,0.00,CLR,,0.00,1101.1,WeatherDisplay:10.37,2013-05-20 19:38:00,
2013-05-20 14:43:00,79.6,64.0,29.72,SSW,205,3.3,5.0,59,0.00,CLR,,0.00,1067.6,WeatherDisplay:10.37,2013-05-20 19:43:00,
2013-05-20 14:48:00,80.1,64.5,29.72,WSW,245,3.9,6.0,59,0.00,CLR,,0.00,1057.7,WeatherDisplay:10.37,2013-05-20 19:48:00,
2013-05-20 14:53:00,80.3,65.1,29.72,SSW,207,5.3,11.5,60,0.00,CLR,,0.00,1046.6,WeatherDisplay:10.37,2013-05-20 19:53:00,
2013-05-20 14:58:00,80.6,64.5,29.72,WNW,292,5.3,8.1,58,0.00,CLR,,0.00,1026.7,WeatherDisplay:10.37,2013-05-20 19:58:00,
2013-05-20 15:03:00,81.1,64.9,29.71,South,184,6.7,13.0,58,0.00,CLR,,0.00,1020.5,WeatherDisplay:10.37,2013-05-20 20:03:00,
2013-05-20 15:08:00,81.6,65.9,29.71,WSW,240,1.6,6.9,59,0.00,CLR,,0.00,1000.7,WeatherDisplay:10.37,2013-05-20 20:08:00,
2013-05-20 15:13:00,82.3,65.0,29.71,SW,233,4.3,6.9,56,0.00,CLR,,0.00,977.1,WeatherDisplay:10.37,2013-05-20 20:13:00,
2013-05-20 15:18:00,82.7,65.4,29.70,SW,215,4.4,9.2,56,0.00,CLR,,0.00,967.2,WeatherDisplay:10.37,2013-05-20 20:18:00,
2013-05-20 15:23:00,82.9,64.0,29.70,SW,222,10.5,16.0,53,0.00,CLR,,0.00,949.8,WeatherDisplay:10.37,2013-05-20 20:23:00,
2013-05-20 15:28:00,82.5,62.5,29.70,WSW,251,12.1,19.6,51,0.00,CLR,,0.00,939.9,WeatherDisplay:10.37,2013-05-20 20:28:00,
2013-05-20 15:33:00,82.4,62.5,29.70,SW,226,4.8,11.5,51,0.00,CLR,,0.00,922.6,WeatherDisplay:10.37,2013-05-20 20:33:00,
2013-05-20 15:38:00,82.6,62.6,29.70,SW,234,9.7,15.0,51,0.00,CLR,,0.00,906.4,WeatherDisplay:10.37,2013-05-20 20:38:00,
2013-05-20 15:44:00,82.5,62.5,29.70,WNW,282,8.8,19.6,51,0.00,CLR,,0.00,889.1,WeatherDisplay:10.37,2013-05-20 20:44:00,
2013-05-20 15:49:00,82.7,62.2,29.70,WNW,299,11.3,21.9,50,0.00,CLR,,0.00,877.9,WeatherDisplay:10.37,2013-05-20 20:49:00,
2013-05-20 15:54:00,82.4,63.0,29.70,WSW,238,9.0,17.3,52,0.00,CLR,,0.00,859.3,WeatherDisplay:10.37,2013-05-20 20:54:00,
2013-05-20 15:59:00,82.3,63.5,29.70,WSW,241,4.9,9.2,53,0.00,CLR,,0.00,839.5,WeatherDisplay:10.37,2013-05-20 20:59:00,
2013-05-20 16:04:00,82.5,63.6,29.70,SW,235,9.5,17.3,53,0.00,CLR,,0.00,834.5,WeatherDisplay:10.37,2013-05-20 21:04:00,
2013-05-20 16:09:00,82.4,63.0,29.70,West,268,7.0,13.8,52,0.00,CLR,,0.00,819.6,WeatherDisplay:10.37,2013-05-20 21:09:00,
2013-05-20 16:14:00,82.1,63.3,29.70,SW,234,6.7,16.1,53,0.00,CLR,,0.00,799.8,WeatherDisplay:10.37,2013-05-20 21:14:00,
2013-05-20 16:19:00,82.1,63.3,29.70,WSW,250,4.8,11.5,53,0.00,CLR,,0.00,780.0,WeatherDisplay:10.37,2013-05-20 21:19:00,
2013-05-20 16:24:00,82.1,63.3,29.69,NW,316,7.8,14.0,53,0.00,CLR,,0.00,767.6,WeatherDisplay:10.37,2013-05-20 21:24:00,
2013-05-20 16:29:00,82.3,63.5,29.69,West,272,5.4,13.8,53,0.00,CLR,,0.00,742.8,WeatherDisplay:10.37,2013-05-20 21:29:00,
2013-05-20 16:34:00,82.1,62.7,29.69,NW,306,5.8,15.0,52,0.00,CLR,,0.00,724.2,WeatherDisplay:10.37,2013-05-20 21:34:00,
2013-05-20 16:39:00,81.9,63.1,29.69,SSW,213,12.2,17.0,53,0.00,CLR,,0.00,710.5,WeatherDisplay:10.37,2013-05-20 21:39:00,
2013-05-20 16:44:00,81.7,63.4,29.69,SW,219,3.4,10.4,54,0.00,CLR,,0.00,690.7,WeatherDisplay:10.37,2013-05-20 21:44:00,
2013-05-20 16:49:00,81.6,63.3,29.70,SW,222,4.7,10.4,54,0.00,CLR,,0.00,675.8,WeatherDisplay:10.37,2013-05-20 21:49:00,
2013-05-20 16:54:00,81.8,64.1,29.70,South,176,2.1,6.9,55,0.00,CLR,,0.00,649.8,WeatherDisplay:10.37,2013-05-20 21:54:00,
2013-05-20 16:59:00,82.0,63.7,29.69,SW,215,4.0,6.9,54,0.00,CLR,,0.00,618.8,WeatherDisplay:10.37,2013-05-20 21:59:00,
2013-05-20 17:04:00,82.0,63.7,29.70,SW,220,6.6,10.4,54,0.00,CLR,,0.00,615.0,WeatherDisplay:10.37,2013-05-20 22:04:00,
2013-05-20 17:16:00,82.1,63.8,29.69,SSW,206,6.0,13.0,54,0.00,OVC,,0.00,590.2,WeatherDisplay:10.37,2013-05-20 22:16:00,
2013-05-20 17:21:00,81.7,63.4,29.69,South,176,7.9,11.5,54,0.00,CLR,,0.00,555.5,WeatherDisplay:10.37,2013-05-20 22:21:00,
2013-05-20 17:26:00,81.7,63.4,29.69,South,186,6.6,13.0,54,0.00,CLR,,0.00,544.4,WeatherDisplay:10.37,2013-05-20 22:26:00,
2013-05-20 17:31:00,81.6,62.8,29.68,SSW,210,6.1,7.0,53,0.00,CLR,,0.00,466.2,WeatherDisplay:10.37,2013-05-20 22:31:00,
2013-05-20 17:36:00,81.4,62.1,29.67,South,184,6.5,14.0,52,0.00,CLR,,0.00,333.6,WeatherDisplay:10.37,2013-05-20 22:36:00,
2013-05-20 17:41:00,81.1,61.8,29.68,South,186,3.9,7.0,52,0.00,CLR,,0.00,202.1,WeatherDisplay:10.37,2013-05-20 22:41:00,
2013-05-20 17:46:00,80.7,62.5,29.67,SSE,156,5.5,10.0,54,0.00,FEW,,0.00,364.6,WeatherDisplay:10.37,2013-05-20 22:46:00,
2013-05-20 17:51:00,80.2,62.6,29.66,SSW,205,6.3,10.4,55,0.00,CLR,,0.00,427.8,WeatherDisplay:10.37,2013-05-20 22:51:00,
2013-05-20 17:56:00,80.2,63.1,29.67,SSE,161,5.5,11.5,56,0.00,CLR,,0.00,328.6,WeatherDisplay:10.37,2013-05-20 22:56:00,
2013-05-20 18:01:00,80.2,63.6,29.67,SSE,155,4.1,7.0,57,0.00,CLR,,0.00,359.6,WeatherDisplay:10.37,2013-05-20 23:01:00,
2013-05-20 18:06:00,80.3,63.7,29.67,South,184,7.0,11.5,57,0.00,CLR,,0.00,267.8,WeatherDisplay:10.37,2013-05-20 23:06:00,
2013-05-20 18:11:00,79.9,63.3,29.67,SSE,168,3.5,6.9,57,0.00,CLR,,0.00,209.6,WeatherDisplay:10.37,2013-05-20 23:11:00,
2013-05-20 18:16:00,79.6,63.5,29.67,SSE,149,4.3,6.9,58,0.00,FEW,,0.00,198.4,WeatherDisplay:10.37,2013-05-20 23:16:00,
2013-05-20 18:21:00,79.5,63.4,29.67,SSE,156,5.0,9.0,58,0.00,SCT,,0.00,95.5,WeatherDisplay:10.37,2013-05-20 23:21:00,
2013-05-20 18:26:00,79.3,63.7,29.68,SSE,167,4.0,6.9,59,0.00,BKN,,0.00,63.2,WeatherDisplay:10.37,2013-05-20 23:26:00,
2013-05-20 18:31:00,78.9,62.9,29.68,SSE,149,5.8,11.5,58,0.00,OVC,,0.00,58.3,WeatherDisplay:10.37,2013-05-20 23:31:00,
2013-05-20 18:36:00,78.7,63.2,29.67,SSE,156,3.9,13.0,59,0.00,OVC,,0.00,40.9,WeatherDisplay:10.37,2013-05-20 23:36:00,
2013-05-20 18:41:00,78.3,62.8,29.67,SSW,196,3.8,12.7,59,0.00,OVC,,0.00,26.0,WeatherDisplay:10.37,2013-05-20 23:41:00,
2013-05-20 18:46:00,78.0,62.5,29.67,SSE,153,3.8,10.4,59,0.00,OVC,,0.00,13.6,WeatherDisplay:10.37,2013-05-20 23:46:00,
2013-05-20 18:51:00,77.6,62.6,29.66,SSE,153,7.4,12.0,60,0.00,OVC,,0.00,6.2,WeatherDisplay:10.37,2013-05-20 23:51:00,
2013-05-20 18:56:00,77.2,62.7,29.65,SSE,148,9.0,11.5,61,0.00,OVC,,0.00,6.2,WeatherDisplay:10.37,2013-05-20 23:56:00,
2013-05-20 19:01:00,76.9,63.3,29.64,SSE,162,5.9,11.5,63,0.00,OVC,,0.00,8.7,WeatherDisplay:10.37,2013-05-21 00:01:00,
2013-05-20 19:06:00,76.2,63.6,29.66,SSE,152,8.0,18.0,65,0.00,OVC,,0.00,8.7,WeatherDisplay:10.37,2013-05-21 00:06:00,
2013-05-20 19:11:00,74.4,63.1,29.66,SSE,159,6.2,10.4,68,0.00,OVC,,0.00,6.2,WeatherDisplay:10.37,2013-05-21 00:11:00,
2013-05-20 19:16:00,73.8,63.8,29.67,South,186,2.3,6.9,71,0.00,OVC,,0.00,0.0,WeatherDisplay:10.37,2013-05-21 00:16:00,
2013-05-20 19:21:00,73.6,64.4,29.67,South,182,1.4,3.5,73,0.00,OVC,,0.00,0.0,WeatherDisplay:10.37,2013-05-21 00:21:00,
2013-05-20 19:26:00,73.4,64.6,29.67,South,183,0.1,1.2,74,0.00,OVC,,0.00,0.0,WeatherDisplay:10.37,2013-05-21 00:26:00,
2013-05-20 19:31:00,73.4,64.6,29.67,South,182,1.2,2.3,74,0.00,OVC,,0.00,0.0,WeatherDisplay:10.37,2013-05-21 00:31:00,
2013-05-20 19:36:00,73.4,65.4,29.66,South,182,0.6,2.0,76,0.00,OVC,,0.00,0.0,WeatherDisplay:10.37,2013-05-21 00:36:00,
2013-05-20 19:41:00,73.3,65.7,29.66,South,182,1.0,2.0,77,0.01,RA,,0.01,0.0,WeatherDisplay:10.37,2013-05-21 00:41:00,
2013-05-20 19:46:00,72.9,66.0,29.68,SSW,203,3.1,4.6,79,0.02,RA,,0.02,0.0,WeatherDisplay:10.37,2013-05-21 00:46:00,
2013-05-20 19:51:00,72.1,65.6,29.70,West,265,6.1,11.5,80,0.04,RA,,0.04,0.0,WeatherDisplay:10.37,2013-05-21 00:51:00,
2013-05-20 19:56:00,70.7,64.2,29.72,SSW,202,13.8,21.9,80,0.06,RA,,0.06,0.0,WeatherDisplay:10.37,2013-05-21 00:56:00,
2013-05-20 20:01:00,68.6,62.2,29.74,SW,231,8.9,19.6,80,0.10,RA,,0.10,0.0,WeatherDisplay:10.37,2013-05-21 01:01:00,
2013-05-20 20:06:00,67.4,61.4,29.73,SW,233,10.2,16.1,81,0.14,RA,,0.14,0.0,WeatherDisplay:10.37,2013-05-21 01:06:00,
2013-05-20 20:11:00,66.4,60.7,29.73,WSW,252,2.0,4.0,82,0.18,RA,,0.18,0.0,WeatherDisplay:10.37,2013-05-21 01:11:00,
2013-05-20 20:16:00,65.9,60.6,29.72,WSW,247,0.5,1.2,83,0.20,RA,,0.20,0.0,WeatherDisplay:10.37,2013-05-21 01:16:00,
2013-05-20 20:21:00,65.7,60.4,29.71,WSW,248,3.0,3.5,83,0.21,RA,,0.21,0.0,WeatherDisplay:10.37,2013-05-21 01:21:00,
2013-05-20 20:26:00,65.3,60.3,29.69,WSW,248,1.2,2.3,84,0.22,RA,,0.22,0.0,WeatherDisplay:10.37,2013-05-21 01:26:00,
2013-05-20 20:31:00,65.0,60.4,29.68,ENE,73,0.8,3.0,85,0.22,RA,,0.22,0.0,WeatherDisplay:10.37,2013-05-21 01:31:00,
2013-05-20 20:36:00,64.6,60.3,29.67,ENE,71,3.2,5.0,86,0.23,RA,,0.23,0.0,WeatherDisplay:10.37,2013-05-21 01:36:00,
2013-05-20 20:41:00,64.3,60.3,29.63,ESE,117,5.8,9.0,87,0.23,RA,,0.25,0.0,WeatherDisplay:10.37,2013-05-21 01:41:00,
2013-05-20 20:46:00,63.9,60.0,29.59,East,99,9.2,15.0,87,0.23,RA,,0.26,0.0,WeatherDisplay:10.37,2013-05-21 01:46:00,
2013-05-20 20:51:00,63.5,59.9,29.58,East,82,7.8,13.0,88,0.22,RA,,0.26,0.0,WeatherDisplay:10.37,2013-05-21 01:51:00,
2013-05-20 20:56:00,63.3,60.0,29.60,East,82,6.0,13.8,89,0.20,CLR,,0.26,0.0,WeatherDisplay:10.37,2013-05-21 01:56:00,
2013-05-20 21:01:00,63.4,60.1,29.62,SE,130,8.9,12.0,89,0.16,CLR,,0.26,0.0,WeatherDisplay:10.37,2013-05-21 02:01:00,
2013-05-20 21:06:00,63.6,60.6,29.62,SE,142,6.7,12.7,90,0.12,CLR,,0.26,0.0,WeatherDisplay:10.37,2013-05-21 02:06:00,
2013-05-20 21:11:00,63.9,60.9,29.63,SSE,157,8.7,13.0,90,0.07,CLR,,0.26,0.0,WeatherDisplay:10.37,2013-05-21 02:11:00,
2013-05-20 21:16:00,64.4,61.4,29.64,SE,134,11.7,17.3,90,0.06,CLR,,0.26,0.0,WeatherDisplay:10.37,2013-05-21 02:16:00,
2013-05-20 21:21:00,64.6,61.6,29.62,SE,126,8.7,17.3,90,0.05,CLR,,0.26,0.0,WeatherDisplay:10.37,2013-05-21 02:21:00,
2013-05-20 21:26:00,64.9,62.2,29.62,SE,134,9.9,17.0,91,0.04,CLR,,0.26,0.0,WeatherDisplay:10.37,2013-05-21 02:26:00,
2013-05-20 21:31:00,65.0,62.0,29.62,SE,141,8.0,12.7,90,0.04,CLR,,0.26,0.0,WeatherDisplay:10.37,2013-05-21 02:31:00,
2013-05-20 21:36:00,64.9,61.9,29.62,SSE,160,11.6,18.4,90,0.02,CLR,,0.26,0.0,WeatherDisplay:10.37,2013-05-21 02:36:00,
2013-05-20 21:41:00,64.7,61.4,29.62,SE,127,12.0,17.3,89,0.01,CLR,,0.26,0.0,WeatherDisplay:10.37,2013-05-21 02:41:00,
2013-05-20 21:46:00,64.8,60.8,29.61,SSE,163,12.2,19.6,87,0.00,CLR,,0.26,0.0,WeatherDisplay:10.37,2013-05-21 02:46:00,
2013-05-20 21:51:00,65.0,60.4,29.58,SE,127,11.0,19.6,85,0.00,CLR,,0.26,0.0,WeatherDisplay:10.37,2013-05-21 02:51:00,
2013-05-20 21:56:00,65.1,60.1,29.55,SSE,160,13.4,23.0,84,0.00,CLR,,0.26,0.0,WeatherDisplay:10.37,2013-05-21 02:56:00,
2013-05-20 22:01:00,65.5,59.9,29.52,SE,140,14.0,21.0,82,0.00,CLR,,0.26,0.0,WeatherDisplay:10.37,2013-05-21 03:01:00,
2013-05-20 22:06:00,65.9,59.9,29.59,SSW,193,10.8,20.0,81,0.00,CLR,,0.26,0.0,WeatherDisplay:10.37,2013-05-21 03:06:00,
2013-05-20 22:11:00,66.0,59.7,29.59,South,184,10.4,19.6,80,0.00,CLR,,0.26,0.0,WeatherDisplay:10.37,2013-05-21 03:11:00,
2013-05-20 22:16:00,65.9,59.9,29.58,South,186,6.1,11.5,81,0.00,CLR,,0.26,0.0,WeatherDisplay:10.37,2013-05-21 03:16:00,
2013-05-20 22:21:00,65.7,59.7,29.58,South,177,4.8,16.1,81,0.00,CLR,,0.26,0.0,WeatherDisplay:10.37,2013-05-21 03:21:00,
2013-05-20 22:26:00,65.4,59.4,29.58,SSE,165,4.7,14.0,81,0.00,CLR,,0.26,0.0,WeatherDisplay:10.37,2013-05-21 03:26:00,
2013-05-20 22:31:00,65.3,59.7,29.58,SSW,208,10.1,21.9,82,0.00,CLR,,0.26,0.0,WeatherDisplay:10.37,2013-05-21 03:31:00,
2013-05-20 22:36:00,65.1,59.8,29.58,SSE,155,8.8,15.0,83,0.00,CLR,,0.26,0.0,WeatherDisplay:10.37,2013-05-21 03:36:00,
2013-05-20 22:41:00,64.9,59.6,29.60,SW,215,5.7,13.0,83,0.00,CLR,,0.26,0.0,WeatherDisplay:10.37,2013-05-21 03:41:00,
2013-05-20 22:46:00,64.9,59.6,29.59,SSE,151,5.0,11.5,83,0.00,CLR,,0.26,0.0,WeatherDisplay:10.37,2013-05-21 03:46:00,
2013-05-20 22:51:00,64.8,59.9,29.60,SE,146,6.9,12.7,84,0.00,CLR,,0.26,0.0,WeatherDisplay:10.37,2013-05-21 03:51:00,
2013-05-20 22:56:00,64.7,59.8,29.63,South,187,11.5,17.3,84,0.00,CLR,,0.26,0.0,WeatherDisplay:10.37,2013-05-21 03:56:00,
2013-05-20 23:01:00,64.8,60.2,29.62,South,169,10.1,17.0,85,0.00,CLR,,0.26,0.0,WeatherDisplay:10.37,2013-05-21 04:01:00,
2013-05-20 23:06:00,64.8,60.2,29.62,SW,219,6.7,12.7,85,0.00,CLR,,0.26,0.0,WeatherDisplay:10.37,2013-05-21 04:06:00,
2013-05-20 23:11:00,64.8,59.9,29.63,SSE,155,6.9,12.0,84,0.00,CLR,,0.26,0.0,WeatherDisplay:10.37,2013-05-21 04:11:00,
2013-05-20 23:16:00,64.9,59.9,29.63,SSW,213,9.5,16.0,84,0.00,CLR,,0.26,0.0,WeatherDisplay:10.37,2013-05-21 04:16:00,
2013-05-20 23:21:00,64.9,59.9,29.64,SSE,157,10.3,15.0,84,0.00,CLR,,0.26,0.0,WeatherDisplay:10.37,2013-05-21 04:21:00,
2013-05-20 23:26:00,64.9,59.9,29.64,South,182,8.0,12.7,84,0.00,CLR,,0.26,0.0,WeatherDisplay:10.37,2013-05-21 04:26:00,
2013-05-20 23:31:00,64.9,59.9,29.64,SSE,164,7.3,12.0,84,0.00,CLR,,0.26,0.0,WeatherDisplay:10.37,2013-05-21 04:31:00,
2013-05-20 23:36:00,64.8,59.9,29.65,SSW,204,8.2,12.7,84,0.00,CLR,,0.26,0.0,WeatherDisplay:10.37,2013-05-21 04:36:00,
2013-05-20 23:41:00,64.8,59.9,29.65,SSE,156,8.3,16.0,84,0.00,CLR,,0.26,0.0,WeatherDisplay:10.37,2013-05-21 04:41:00,
2013-05-20 23:46:00,64.8,59.9,29.66,SSE,155,9.1,15.0,84,0.00,CLR,,0.26,0.0,WeatherDisplay:10.37,2013-05-21 04:46:00,
2013-05-20 23:51:00,64.7,59.8,29.66,SSE,161,8.7,13.8,84,0.00,CLR,,0.26,0.0,WeatherDisplay:10.37,2013-05-21 04:51:00,
2013-05-20 23:56:00,64.7,60.1,29.66,SSW,207,7.0,13.8,85,0.00,CLR,,0.26,0.0,WeatherDisplay:10.37,2013-05-21 04:56:00,